Retour au catalogue

KUIPER-00458

ActifCommunicationsLEO
NORAD 68950·PAYLOAD·🇺🇸 United States

Lancé Apr 30, 2026 depuis Guiana Space Centre

Loading…

Prochains Passages (prochaines 24 heures)

TLE

FraisSource: CelesTrak SupGP

Époque: Sep 14, 2026, 20:03 UTC

1 68950C 26098AH  26257.83547454  .00007839  00000+0  10262-2 0  2571
2 68950  51.9021  11.7595 0000525  98.2600 216.6015 14.79921078    13

Suivez KUIPER-00458 en temps réel avec AllMySat

Download on the App Store